DELTA 1 DEB, 10835

Orbit data source: Space-Track

DELTA 1 DEB, 10835 is space debris in SSO originally from a launch on Thu, 29 Jul 1976 UTC launched from the Air Force Western Test Range (AFWTR). Debris objects in space refer to the collection of defunct objects orbiting the Earth. Examples of debris include non-operational satellites, rocket bodies, and fragments generated from explosions, collisions, or faulty payload assembly.

Loading next visibility...
Identifier
10835, 1976-077CF
Orbit
SSO
Country
Flag of USUS
Related business
Manufacturer
Unknown
Mission
Spacecraft
Bus & Motor
Unknown
Mass
Unknown
Launch date (UTC)
1976-07-29 (50 years ago)
Launch vehicle
Unknown
Launch site
Air Force Western Test Range (AFWTR)
Object type
Payload
Rocket body
Debris
Shape & HBR
Unknown shape, 0.1 m
Radar Cross Section
Small (<0.1 m²)

Expand to show TLE details & history
Last TLE update: 12 hours ago

TLE from 12 hours ago
0 DELTA 1 DEB
1 10835U 76077CF  26118.80693226  .00011513  00000-0  11014-1 0  9997
2 10835 102.0858 217.6743 0033651 288.2292 194.9406 13.80367408358171
Epoch: 2026-04-28T19:21Z
TLE epoch observation values (Epoch: 2026-04-28T19:21:58.947Z)
Latitude
55.12798°
Longitude
-91.80013°
Altitude
995.42 km
Speed
7.347 km/s
True Right ascension
03h 41m 53s
True Declination
54° 58' 18"
Sunlit
Object was in daylight at epoch
Visualization orbit readout
Latitude
Unknown
Longitude
Unknown
Altitude
Unknown
Speed
Unknown
Apparent Right ascension
Unknown
Apparent Declination
Unknown
Sunlit
N/A
Visualization observer readout
Local Sidereal Time
14:43:23
Azimuth
Unknown
Elevation
Unknown
Doppler factor
Unknown
Orbital elements
Apogee altitude
984.677 km
Perigee altitude
935.29 km
Semi-major axis
7,338.121 km
Eccentricity
0.00337
Inclination
102.0858°
RAAN
217.6743°
Arg. of periapsis
288.2292°
True anomaly
194.84158°
Mean anomaly
194.9406°
Eccentric anomaly
194.89105°
Mean motion
3.45276 °/min
Orbital period
104.26 mins
BSTAR
0.011014
Loading maneuver chart data...
Computing Atmospheric mass density...
Loading historical data...
Loading historical data...
Loading historical data...
Loading historical data...
Loading historical data...
Loading historical data...
Loading historical data...

Documentation

Showing up to 5 results
|